Woodward, OK

8:51 PM CST on February 25, 2017 (GMT -0600)
West Woodward

Weather History for KWWR - December, 2012

Change the Weather History Date:

Friday, December 28, 2012

  Actual Average (KGAG) Record (KGAG)
Temperature  
Mean Temperature 24 °F -  
Max Temperature 32 °F 47 °F 73 °F (1999)
Min Temperature 17 °F 23 °F -5 °F (1983)
Degree Days  
Heating Degree Days 40    
Moisture  
Dew Point 15 °F    
Average Humidity 67    
Maximum Humidity 86    
Minimum Humidity 47    
Precipitation  
Precipitation 0.00 in - - ()
Sea Level Pressure  
Sea Level Pressure 30.07 in    
Wind  
Wind Speed 11 mph (NW)    
Max Wind Speed 17 mph    
Max Gust Speed 23 mph    
Visibility 10 miles    
Events      
Averages and records for this station are not official NWS values.
T = Trace of Precipitation, MM = Missing Value Source: NWS Daily Summary

Daily Weather History Graph

Daily Weather History Graph

Search for Another Location

Airport or City:

Trip Planner

Search our weather history database for the weather conditions in past years. The results will help you decide how hot, cold, wet, or windy it might be!

Date:

Astronomy

Dec. 28, 2012 Rise Set
Actual Time 7:49 AM CST 5:30 PM CST
Civil Twilight 7:20 AM CST 5:59 PM CST
Nautical Twilight 6:48 AM CST 6:31 PM CST
Astronomical Twilight 6:16 AM CST 7:03 PM CST
Moon 6:07 PM CST (12/28) 7:45 AM CST (12/28)
Length of Visible Light 10h 39m
Length of Day
9h 41m
Full, 100% of the Moon is Illuminated
Dec 28
Full
Jan 4
Last Quarter
Jan 11
New
Jan 18
First Quarter
Jan 26
Full

Hourly Weather History & Observations

Time (CST) Temp. Windchill Dew Point Humidity Pressure Visibility Wind Dir Wind Speed Gust Speed Precip Events Conditions
12:15 AM 26.6 °F 15.7 °F 21.2 °F 80% 29.98 in 10.0 mi NNW 12.7 mph 16.1 mph N/A   Overcast
12:35 AM 26.6 °F 16.2 °F 21.2 °F 80% 29.97 in 10.0 mi NNW 11.5 mph 19.6 mph N/A   Overcast
12:55 AM 26.6 °F 16.2 °F 21.2 °F 80% 29.97 in 10.0 mi NNW 11.5 mph - N/A   Overcast
1:15 AM 26.6 °F 17.5 °F 21.2 °F 80% 29.98 in 10.0 mi NNW 9.2 mph - N/A   Overcast
1:35 AM 26.6 °F 16.8 °F 21.2 °F 80% 29.99 in 10.0 mi NNW 10.4 mph - N/A   Overcast
1:55 AM 26.6 °F 18.2 °F 21.2 °F 80% 29.99 in 10.0 mi NNW 8.1 mph - N/A   Overcast
2:15 AM 26.6 °F 18.2 °F 21.2 °F 80% 30.00 in 10.0 mi NNW 8.1 mph - N/A   Overcast
2:35 AM 26.6 °F 19.1 °F 21.2 °F 80% 30.00 in 10.0 mi NNW 6.9 mph - N/A   Overcast
3:15 AM 26.6 °F 18.2 °F 21.2 °F 80% 30.00 in 10.0 mi NW 8.1 mph - N/A   Overcast
3:35 AM 26.6 °F 17.5 °F 21.2 °F 80% 30.00 in 10.0 mi NW 9.2 mph - N/A   Overcast
3:55 AM 26.6 °F 15.7 °F 19.4 °F 74% 30.00 in 10.0 mi NNW 12.7 mph - N/A   Overcast
4:35 AM 24.8 °F 12.4 °F 19.4 °F 80% 29.99 in 10.0 mi NNW 15.0 mph - N/A   Overcast
4:55 AM 23.0 °F 9.2 °F 19.4 °F 86% 29.97 in 10.0 mi North 17.3 mph 20.7 mph N/A   Overcast
5:15 AM 23.0 °F 11.1 °F 17.6 °F 80% 29.99 in 10.0 mi NNW 12.7 mph - N/A   Overcast
5:35 AM 23.0 °F 13.9 °F 17.6 °F 80% 30.01 in 10.0 mi NNW 8.1 mph - N/A   Overcast
5:55 AM 23.0 °F 12.4 °F 15.8 °F 74% 30.01 in 10.0 mi NNW 10.4 mph 17.3 mph N/A   Overcast
6:15 AM 23.0 °F 10.6 °F 15.8 °F 74% 30.01 in 10.0 mi NNW 13.8 mph - N/A   Overcast
6:35 AM 23.0 °F 11.7 °F 14.0 °F 68% 30.01 in 10.0 mi North 11.5 mph 17.3 mph N/A   Overcast
7:15 AM 21.2 °F 10.1 °F 14.0 °F 74% 30.02 in 10.0 mi NNW 10.4 mph - N/A   Overcast
7:35 AM 21.2 °F 12.6 °F 14.0 °F 74% 30.03 in 10.0 mi NNW 6.9 mph - N/A   Scattered Clouds
7:55 AM 21.2 °F 14.9 °F 14.0 °F 74% 30.04 in 10.0 mi NW 4.6 mph - N/A   Clear
8:15 AM 19.4 °F 11.5 °F 14.0 °F 80% 30.04 in 10.0 mi NW 5.8 mph - N/A   Scattered Clouds
8:35 AM 21.2 °F 10.1 °F 14.0 °F 74% 30.04 in 10.0 mi NNW 10.4 mph - N/A   Mostly Cloudy
8:55 AM 23.0 °F 13.1 °F 14.0 °F 68% 30.05 in 10.0 mi NNW 9.2 mph - N/A   Scattered Clouds
9:15 AM 23.0 °F 11.1 °F 14.0 °F 68% 30.07 in 10.0 mi North 12.7 mph 20.7 mph N/A   Scattered Clouds
9:35 AM 24.8 °F 12.4 °F 14.0 °F 64% 30.07 in 10.0 mi North 15.0 mph 23.0 mph N/A   Clear
9:55 AM 26.6 °F 14.7 °F 14.0 °F 59% 30.09 in 10.0 mi North 15.0 mph - N/A   Clear
10:15 AM 26.6 °F 15.2 °F 12.2 °F 55% 30.09 in 10.0 mi North 13.8 mph - N/A   Clear
10:35 AM 26.6 °F 16.8 °F 14.0 °F 59% 30.10 in 10.0 mi North 10.4 mph 18.4 mph N/A   Clear
10:55 AM 26.6 °F 15.7 °F 12.2 °F 55% 30.11 in 10.0 mi NNW 12.7 mph 21.9 mph N/A   Clear
11:15 AM 28.4 °F 16.6 °F 12.2 °F 51% 30.11 in 10.0 mi NNW 16.1 mph 19.6 mph N/A   Scattered Clouds
11:35 AM 28.4 °F 18.0 °F 14.0 °F 55% 30.10 in 10.0 mi NNW 12.7 mph 17.3 mph N/A   Scattered Clouds
11:55 AM 28.4 °F 18.5 °F 12.2 °F 51% 30.10 in 10.0 mi NW 11.5 mph 17.3 mph N/A   Scattered Clouds
12:15 PM 28.4 °F 18.0 °F 12.2 °F 51% 30.09 in 10.0 mi North 12.7 mph 19.6 mph N/A   Clear
12:35 PM 30.2 °F 20.8 °F 12.2 °F 47% 30.08 in 10.0 mi NNW 11.5 mph - N/A   Clear
12:55 PM 30.2 °F 18.9 °F 12.2 °F 47% 30.07 in 10.0 mi NNW 16.1 mph - N/A   Clear
1:15 PM 30.2 °F 20.2 °F 12.2 °F 47% 30.05 in 10.0 mi NNW 12.7 mph 16.1 mph N/A   Clear
1:35 PM 32.0 °F 22.5 °F 14.0 °F 48% 30.05 in 10.0 mi NW 12.7 mph - N/A   Clear
1:55 PM 32.0 °F 22.5 °F 14.0 °F 48% 30.05 in 10.0 mi WNW 12.7 mph 17.3 mph N/A   Clear
2:15 PM 32.0 °F 21.6 °F 14.0 °F 48% 30.05 in 10.0 mi NNW 15.0 mph - N/A   Clear
2:35 PM 32.0 °F 21.2 °F 14.0 °F 48% 30.05 in 10.0 mi NNW 16.1 mph - N/A   Clear
2:55 PM 32.0 °F 20.8 °F 14.0 °F 48% 30.05 in 10.0 mi NW 17.3 mph 21.9 mph N/A   Clear
3:15 PM 32.0 °F 22.5 °F 14.0 °F 48% 30.04 in 10.0 mi NNW 12.7 mph - N/A   Clear
3:35 PM 32.0 °F 23.0 °F 14.0 °F 48% 30.05 in 10.0 mi NNW 11.5 mph 20.7 mph N/A   Clear
3:55 PM 32.0 °F 23.0 °F 14.0 °F 48% 30.05 in 10.0 mi NW 11.5 mph 21.9 mph N/A   Clear
4:15 PM 32.0 °F 22.5 °F 14.0 °F 48% 30.07 in 10.0 mi NW 12.7 mph - N/A   Clear
4:35 PM 32.0 °F 22.5 °F 14.0 °F 48% 30.07 in 10.0 mi NNW 12.7 mph 17.3 mph N/A   Clear
4:55 PM 32.0 °F 23.0 °F 14.0 °F 48% 30.07 in 10.0 mi NW 11.5 mph 16.1 mph N/A   Clear
5:15 PM 30.2 °F 23.4 °F 15.8 °F 55% 30.08 in 10.0 mi NW 6.9 mph - N/A   Clear
5:35 PM 28.4 °F 22.2 °F 15.8 °F 59% 30.08 in 10.0 mi NW 5.8 mph - N/A   Clear
5:55 PM 26.6 °F 19.1 °F 14.0 °F 59% 30.09 in 10.0 mi NW 6.9 mph - N/A   Clear
6:15 PM 26.6 °F 20.0 °F 15.8 °F 64% 30.09 in 10.0 mi NNW 5.8 mph - N/A   Clear
6:35 PM 26.6 °F 21.2 °F 15.8 °F 64% 30.10 in 10.0 mi NNW 4.6 mph - N/A   Clear
6:55 PM 26.6 °F 21.2 °F 15.8 °F 64% 30.11 in 10.0 mi NNW 4.6 mph - N/A   Clear
7:35 PM 24.8 °F 20.5 °F 14.0 °F 64% 30.13 in 10.0 mi West 3.5 mph - N/A   Clear
7:55 PM 21.2 °F 14.9 °F 14.0 °F 74% 30.13 in 10.0 mi WSW 4.6 mph - N/A   Clear
8:15 PM 21.2 °F 16.4 °F 15.8 °F 80% 30.13 in 10.0 mi WSW 3.5 mph - N/A   Clear
8:35 PM 21.2 °F 14.9 °F 15.8 °F 80% 30.14 in 10.0 mi WSW 4.6 mph - N/A   Clear
8:55 PM 21.2 °F 14.9 °F 15.8 °F 80% 30.15 in 10.0 mi West 4.6 mph - N/A   Clear
9:15 PM 21.2 °F 14.9 °F 14.0 °F 74% 30.15 in 10.0 mi West 4.6 mph - N/A   Clear
9:35 PM 21.2 °F 14.9 °F 14.0 °F 74% 30.16 in 10.0 mi West 4.6 mph - N/A   Clear
9:55 PM 19.4 °F 9.5 °F 14.0 °F 80% 30.16 in 10.0 mi SW 8.1 mph - N/A   Clear
10:15 PM 19.4 °F 10.4 °F 14.0 °F 80% 30.17 in 10.0 mi SW 6.9 mph - N/A   Clear
10:35 PM 19.4 °F 10.4 °F 14.0 °F 80% 30.18 in 10.0 mi WSW 6.9 mph - N/A   Clear
10:55 PM 19.4 °F 11.5 °F 14.0 °F 80% 30.18 in 10.0 mi SW 5.8 mph - N/A   Clear
11:15 PM 19.4 °F 10.4 °F 14.0 °F 80% 30.19 in 10.0 mi WSW 6.9 mph - N/A   Clear
11:35 PM 17.6 °F 6.4 °F 14.0 °F 86% 30.19 in 10.0 mi SW 9.2 mph - N/A   Clear
11:55 PM 17.6 °F 7.3 °F 14.0 °F 86% 30.20 in 10.0 mi SW 8.1 mph - N/A   Clear